Year,Month,Day,Hour,Minute,Value (Times are PST for temperature in C)
2017,09,04,00,00,17.90
2017,09,04,00,01,17.90
2017,09,04,00,02,17.90
2017,09,04,00,03,17.90
2017,09,04,00,04,17.90
2017,09,04,00,05,18.00
2017,09,04,00,06,18.10
2017,09,04,00,07,18.10
2017,09,04,00,08,18.00
2017,09,04,00,09,17.90
2017,09,04,00,10,17.90
2017,09,04,00,11,17.90
2017,09,04,00,12,17.90
2017,09,04,00,13,17.80
2017,09,04,00,14,17.80
2017,09,04,00,15,17.80
2017,09,04,00,16,17.70
2017,09,04,00,17,17.70
2017,09,04,00,18,17.70
2017,09,04,00,19,17.70
2017,09,04,00,20,17.70
2017,09,04,00,21,17.60
2017,09,04,00,22,17.60
2017,09,04,00,23,17.60
2017,09,04,00,24,17.60
2017,09,04,00,25,17.50
2017,09,04,00,26,17.50
2017,09,04,00,27,17.50
2017,09,04,00,28,17.50
2017,09,04,00,29,17.50
2017,09,04,00,30,17.50
2017,09,04,00,31,17.50
2017,09,04,00,32,17.50
2017,09,04,00,33,17.50
2017,09,04,00,34,17.50
2017,09,04,00,35,17.50
2017,09,04,00,36,17.50
2017,09,04,00,37,17.50
2017,09,04,00,38,17.50
2017,09,04,00,39,17.50
2017,09,04,00,40,17.50
2017,09,04,00,41,17.40
2017,09,04,00,42,17.40
2017,09,04,00,43,17.40
2017,09,04,00,44,17.40
2017,09,04,00,45,17.40
2017,09,04,00,46,17.40
2017,09,04,00,47,17.40
2017,09,04,00,48,17.40
2017,09,04,00,49,17.40
2017,09,04,00,50,17.30
2017,09,04,00,51,17.30
2017,09,04,00,52,17.30
2017,09,04,00,53,17.30
2017,09,04,00,54,17.30
2017,09,04,00,55,17.30
2017,09,04,00,56,17.30
2017,09,04,00,57,17.30
2017,09,04,00,58,17.20
2017,09,04,00,59,17.20
2017,09,04,01,00,17.20
2017,09,04,01,01,17.20
2017,09,04,01,02,17.20
2017,09,04,01,03,17.20
2017,09,04,01,04,17.20
2017,09,04,01,05,17.20
2017,09,04,01,06,17.20
2017,09,04,01,07,17.20
2017,09,04,01,08,17.20
2017,09,04,01,09,17.20
2017,09,04,01,10,17.20
2017,09,04,01,11,17.10
2017,09,04,01,12,17.00
2017,09,04,01,13,17.00
2017,09,04,01,14,17.00
2017,09,04,01,15,16.90
2017,09,04,01,16,16.90
2017,09,04,01,17,16.90
2017,09,04,01,18,16.90
2017,09,04,01,19,16.90
2017,09,04,01,20,16.90
2017,09,04,01,21,16.90
2017,09,04,01,22,16.90
2017,09,04,01,23,16.90
2017,09,04,01,24,16.90
2017,09,04,01,25,16.90
2017,09,04,01,26,16.90
2017,09,04,01,27,16.80
2017,09,04,01,28,16.80
2017,09,04,01,29,16.80
2017,09,04,01,30,16.80
2017,09,04,01,31,16.80
2017,09,04,01,32,16.80
2017,09,04,01,33,16.80
2017,09,04,01,34,16.80
2017,09,04,01,35,16.80
2017,09,04,01,36,16.80
2017,09,04,01,37,16.80
2017,09,04,01,38,16.80
2017,09,04,01,39,16.80
2017,09,04,01,40,16.80
2017,09,04,01,41,16.70
2017,09,04,01,42,16.70
2017,09,04,01,43,16.70
2017,09,04,01,44,16.70
2017,09,04,01,45,16.70
2017,09,04,01,46,16.70
2017,09,04,01,47,16.70
2017,09,04,01,48,16.70
2017,09,04,01,49,16.70
2017,09,04,01,50,16.70
2017,09,04,01,51,16.70
2017,09,04,01,52,16.70
2017,09,04,01,53,16.60
2017,09,04,01,54,16.60
2017,09,04,01,55,16.60
2017,09,04,01,56,16.60
2017,09,04,01,57,16.60
2017,09,04,01,58,16.60
2017,09,04,01,59,16.60
2017,09,04,02,00,16.60
2017,09,04,02,01,16.60
2017,09,04,02,02,16.60
2017,09,04,02,03,16.60
2017,09,04,02,04,16.50
2017,09,04,02,05,16.40
2017,09,04,02,06,16.40
2017,09,04,02,07,16.40
2017,09,04,02,08,16.40
2017,09,04,02,09,16.40
2017,09,04,02,10,16.40
2017,09,04,02,11,16.40
2017,09,04,02,12,16.40
2017,09,04,02,13,16.50
2017,09,04,02,14,16.60
2017,09,04,02,15,16.60
2017,09,04,02,16,16.60
2017,09,04,02,17,16.60
2017,09,04,02,18,16.60
2017,09,04,02,19,16.60
2017,09,04,02,20,16.60
2017,09,04,02,21,16.60
2017,09,04,02,22,16.50
2017,09,04,02,23,16.40
2017,09,04,02,24,16.40
2017,09,04,02,25,16.40
2017,09,04,02,26,16.40
2017,09,04,02,27,16.40
2017,09,04,02,28,16.40
2017,09,04,02,29,16.40
2017,09,04,02,30,16.40
2017,09,04,02,31,16.40
2017,09,04,02,32,16.40
2017,09,04,02,33,16.40
2017,09,04,02,34,16.40
2017,09,04,02,35,16.30
2017,09,04,02,36,16.30
2017,09,04,02,37,16.30
2017,09,04,02,38,16.30
2017,09,04,02,39,16.30
2017,09,04,02,40,16.30
2017,09,04,02,41,16.30
2017,09,04,02,42,16.30
2017,09,04,02,43,16.30
2017,09,04,02,44,16.30
2017,09,04,02,45,16.30
2017,09,04,02,46,16.30
2017,09,04,02,47,16.20
2017,09,04,02,48,16.20
2017,09,04,02,49,16.20
2017,09,04,02,50,16.20
2017,09,04,02,51,16.20
2017,09,04,02,52,16.10
2017,09,04,02,53,16.10
2017,09,04,02,54,16.10
2017,09,04,02,55,16.10
2017,09,04,02,56,16.10
2017,09,04,02,57,16.00
2017,09,04,02,58,15.90
2017,09,04,02,59,15.90
2017,09,04,03,00,15.90
2017,09,04,03,01,15.90
2017,09,04,03,02,15.90
2017,09,04,03,03,15.90
2017,09,04,03,04,15.90
2017,09,04,03,05,15.90
2017,09,04,03,06,15.90
2017,09,04,03,07,15.90
2017,09,04,03,08,15.90
2017,09,04,03,09,15.90
2017,09,04,03,10,15.90
2017,09,04,03,11,16.00
2017,09,04,03,12,16.10
2017,09,04,03,13,16.10
2017,09,04,03,14,16.10
2017,09,04,03,15,16.10
2017,09,04,03,16,16.10
2017,09,04,03,17,16.10
2017,09,04,03,18,16.10
2017,09,04,03,19,16.10
2017,09,04,03,20,16.10
2017,09,04,03,21,16.10
2017,09,04,03,22,16.10
2017,09,04,03,23,16.00
2017,09,04,03,24,15.90
2017,09,04,03,25,15.90
2017,09,04,03,26,15.90
2017,09,04,03,27,15.90
2017,09,04,03,28,15.90
2017,09,04,03,29,15.90
2017,09,04,03,30,15.90
2017,09,04,03,31,15.90
2017,09,04,03,32,15.90
2017,09,04,03,33,15.90
2017,09,04,03,34,15.90
2017,09,04,03,35,15.90
2017,09,04,03,36,15.90
2017,09,04,03,37,15.90
2017,09,04,03,38,15.90
2017,09,04,03,39,15.80
2017,09,04,03,40,15.80
2017,09,04,03,41,15.80
2017,09,04,03,42,15.80
2017,09,04,03,43,15.80
2017,09,04,03,44,15.80
2017,09,04,03,45,15.90
2017,09,04,03,46,15.90
2017,09,04,03,47,16.00
2017,09,04,03,48,16.10
2017,09,04,03,49,16.10
2017,09,04,03,50,16.10
2017,09,04,03,51,16.10
2017,09,04,03,52,16.10
2017,09,04,03,53,16.10
2017,09,04,03,54,16.10
2017,09,04,03,55,16.10
2017,09,04,03,56,16.10
2017,09,04,03,57,16.20
2017,09,04,03,58,16.30
2017,09,04,03,59,16.30
2017,09,04,04,00,16.40
2017,09,04,04,01,16.40
2017,09,04,04,02,16.40
2017,09,04,04,03,16.40
2017,09,04,04,04,16.50
2017,09,04,04,05,16.60
2017,09,04,04,06,16.60
2017,09,04,04,07,16.50
2017,09,04,04,08,16.40
2017,09,04,04,09,16.40
2017,09,04,04,10,16.40
2017,09,04,04,11,16.40
2017,09,04,04,12,16.40
2017,09,04,04,13,16.40
2017,09,04,04,14,16.40
2017,09,04,04,15,16.40
2017,09,04,04,16,16.40
2017,09,04,04,17,16.40
2017,09,04,04,18,16.40
2017,09,04,04,19,16.40
2017,09,04,04,20,16.40
2017,09,04,04,21,16.40
2017,09,04,04,22,16.40
2017,09,04,04,23,16.40
2017,09,04,04,24,16.40
2017,09,04,04,25,16.40
2017,09,04,04,26,16.40
2017,09,04,04,27,16.40
2017,09,04,04,28,16.40
2017,09,04,04,29,16.40
2017,09,04,04,30,16.40
2017,09,04,04,31,16.40
2017,09,04,04,32,16.40
2017,09,04,04,33,16.30
2017,09,04,04,34,16.30
2017,09,04,04,35,16.20
2017,09,04,04,36,16.10
2017,09,04,04,37,16.10
2017,09,04,04,38,16.00
2017,09,04,04,39,15.80
2017,09,04,04,40,15.80
2017,09,04,04,41,15.80
2017,09,04,04,42,15.80
2017,09,04,04,43,15.80
2017,09,04,04,44,15.80
2017,09,04,04,45,15.80
2017,09,04,04,46,15.80
2017,09,04,04,47,15.80
2017,09,04,04,48,15.80
2017,09,04,04,49,15.80
2017,09,04,04,50,15.80
2017,09,04,04,51,15.80
2017,09,04,04,52,15.80
2017,09,04,04,53,15.80
2017,09,04,04,54,15.80
2017,09,04,04,55,15.90
2017,09,04,04,56,15.90
2017,09,04,04,57,15.90
2017,09,04,04,58,15.80
2017,09,04,04,59,15.80
2017,09,04,05,00,15.80
2017,09,04,05,01,15.80
2017,09,04,05,02,15.80
2017,09,04,05,03,15.80
2017,09,04,05,04,15.80
2017,09,04,05,05,15.80
2017,09,04,05,06,15.80
2017,09,04,05,07,15.80
2017,09,04,05,08,15.80
2017,09,04,05,09,15.80
2017,09,04,05,10,15.80
2017,09,04,05,11,15.80
2017,09,04,05,12,15.70
2017,09,04,05,13,15.70
2017,09,04,05,14,15.70
2017,09,04,05,15,15.70
2017,09,04,05,16,15.60
2017,09,04,05,17,15.60
2017,09,04,05,18,15.60
2017,09,04,05,19,15.70
2017,09,04,05,20,15.70
2017,09,04,05,21,15.70
2017,09,04,05,22,15.70
2017,09,04,05,23,15.70
2017,09,04,05,24,15.70
2017,09,04,05,25,15.70
2017,09,04,05,26,15.80
2017,09,04,05,27,15.80
2017,09,04,05,28,15.80
2017,09,04,05,29,15.80
2017,09,04,05,30,15.80
2017,09,04,05,31,15.70
2017,09,04,05,32,15.60
2017,09,04,05,33,15.60
2017,09,04,05,34,15.60
2017,09,04,05,35,15.50
2017,09,04,05,36,15.50
2017,09,04,05,37,15.50
2017,09,04,05,38,15.50
2017,09,04,05,39,15.50
2017,09,04,05,40,15.40
2017,09,04,05,41,15.40
2017,09,04,05,42,15.40
2017,09,04,05,43,15.30
2017,09,04,05,44,15.30
2017,09,04,05,45,15.30
2017,09,04,05,46,15.30
2017,09,04,05,47,15.30
2017,09,04,05,48,15.30
2017,09,04,05,49,15.30
2017,09,04,05,50,15.20
2017,09,04,05,51,15.20
2017,09,04,05,52,15.10
2017,09,04,05,53,15.10
2017,09,04,05,54,15.10
2017,09,04,05,55,15.00
2017,09,04,05,56,15.00
2017,09,04,05,57,15.00
2017,09,04,05,58,15.00
2017,09,04,05,59,15.00
2017,09,04,06,00,15.00
2017,09,04,06,01,15.00
2017,09,04,06,02,15.00
2017,09,04,06,03,15.00
2017,09,04,06,04,15.00
2017,09,04,06,05,15.00
2017,09,04,06,06,15.00
2017,09,04,06,07,15.00
2017,09,04,06,08,15.00
2017,09,04,06,09,14.90
2017,09,04,06,10,14.90
2017,09,04,06,11,14.90
2017,09,04,06,12,14.90
2017,09,04,06,13,14.90
2017,09,04,06,14,14.90
2017,09,04,06,15,15.00
2017,09,04,06,16,15.00
2017,09,04,06,17,15.00
2017,09,04,06,18,14.90
2017,09,04,06,19,15.00
2017,09,04,06,20,15.00
2017,09,04,06,21,15.00
2017,09,04,06,22,15.00
2017,09,04,06,23,15.10
2017,09,04,06,24,15.10
2017,09,04,06,25,15.20
2017,09,04,06,26,15.20
2017,09,04,06,27,15.20
2017,09,04,06,28,15.20
2017,09,04,06,29,15.20
2017,09,04,06,30,15.30
2017,09,04,06,31,15.30
2017,09,04,06,32,15.30
2017,09,04,06,33,15.30
2017,09,04,06,34,15.30
2017,09,04,06,35,15.30
2017,09,04,06,36,15.30
2017,09,04,06,37,15.30
2017,09,04,06,38,15.30
2017,09,04,06,39,15.30
2017,09,04,06,40,15.30
2017,09,04,06,41,15.30
2017,09,04,06,42,15.30
2017,09,04,06,43,15.30
2017,09,04,06,44,15.30
2017,09,04,06,45,15.30
2017,09,04,06,46,15.30
2017,09,04,06,47,15.30
2017,09,04,06,48,15.30
2017,09,04,06,49,15.30
2017,09,04,06,50,15.30
2017,09,04,06,51,15.40
2017,09,04,06,52,15.40
2017,09,04,06,53,15.40
2017,09,04,06,54,15.40
2017,09,04,06,55,15.30
2017,09,04,06,56,15.30
2017,09,04,06,57,15.30
2017,09,04,06,58,15.30
2017,09,04,06,59,15.30
2017,09,04,07,00,15.30
2017,09,04,07,01,15.30
2017,09,04,07,02,15.30
2017,09,04,07,03,15.30
2017,09,04,07,04,15.40
2017,09,04,07,05,15.40
2017,09,04,07,06,15.50
2017,09,04,07,07,15.50
2017,09,04,07,08,15.50
2017,09,04,07,09,15.60
2017,09,04,07,10,15.60
2017,09,04,07,11,15.70
2017,09,04,07,12,15.70
2017,09,04,07,13,15.80
2017,09,04,07,14,15.80
2017,09,04,07,15,15.80
2017,09,04,07,16,15.80
2017,09,04,07,17,15.80
2017,09,04,07,18,15.80
2017,09,04,07,19,15.80
2017,09,04,07,20,15.80
2017,09,04,07,21,15.80
2017,09,04,07,22,15.80
2017,09,04,07,23,15.80
2017,09,04,07,24,15.90
2017,09,04,07,25,15.90
2017,09,04,07,26,15.90
2017,09,04,07,27,15.90
2017,09,04,07,28,16.10
2017,09,04,07,29,16.10
2017,09,04,07,30,16.10
2017,09,04,07,31,16.10
2017,09,04,07,32,16.10
2017,09,04,07,33,16.20
2017,09,04,07,34,16.20
2017,09,04,07,35,16.30
2017,09,04,07,36,16.30
2017,09,04,07,37,16.40
2017,09,04,07,38,16.40
2017,09,04,07,39,16.50
2017,09,04,07,40,16.60
2017,09,04,07,41,16.70
2017,09,04,07,42,16.80
2017,09,04,07,43,16.90
2017,09,04,07,44,16.90
2017,09,04,07,45,17.00
2017,09,04,07,46,17.00
2017,09,04,07,47,17.10
2017,09,04,07,48,17.10
2017,09,04,07,49,17.20
2017,09,04,07,50,17.20
2017,09,04,07,51,17.30
2017,09,04,07,52,17.30
2017,09,04,07,53,17.40
2017,09,04,07,54,17.50
2017,09,04,07,55,17.60
2017,09,04,07,56,17.70
2017,09,04,07,57,17.70
2017,09,04,07,58,17.80
2017,09,04,07,59,17.90
2017,09,04,08,00,17.90
2017,09,04,08,01,18.00
2017,09,04,08,02,18.10
2017,09,04,08,03,18.20
2017,09,04,08,04,18.30
2017,09,04,08,05,18.30
2017,09,04,08,06,18.40
2017,09,04,08,07,18.50
2017,09,04,08,08,18.60
2017,09,04,08,09,18.60
2017,09,04,08,10,18.70
2017,09,04,08,11,18.80
2017,09,04,08,12,18.90
2017,09,04,08,13,18.90
2017,09,04,08,14,19.00
2017,09,04,08,15,19.10
2017,09,04,08,16,19.10
2017,09,04,08,17,19.10
2017,09,04,08,18,19.10
2017,09,04,08,19,19.20
2017,09,04,08,20,19.20
2017,09,04,08,21,19.30
2017,09,04,08,22,19.40
2017,09,04,08,23,19.60
2017,09,04,08,24,19.60
2017,09,04,08,25,19.70
2017,09,04,08,26,19.90
2017,09,04,08,27,19.90
2017,09,04,08,28,20.10
2017,09,04,08,29,20.20
2017,09,04,08,30,20.30
2017,09,04,08,31,20.50
2017,09,04,08,32,20.70
2017,09,04,08,33,20.80
2017,09,04,08,34,20.90
2017,09,04,08,35,21.00
2017,09,04,08,36,21.10
2017,09,04,08,37,21.20
2017,09,04,08,38,21.30
2017,09,04,08,39,21.40
2017,09,04,08,40,21.50
2017,09,04,08,41,21.60
2017,09,04,08,42,21.70
2017,09,04,08,43,21.80
2017,09,04,08,44,22.00
2017,09,04,08,45,22.10
2017,09,04,08,46,22.30
2017,09,04,08,47,22.40
2017,09,04,08,48,22.50
2017,09,04,08,49,22.60
2017,09,04,08,50,22.70
2017,09,04,08,51,22.80
2017,09,04,08,52,22.90
2017,09,04,08,53,23.00
2017,09,04,08,54,23.10
2017,09,04,08,55,23.30
2017,09,04,08,56,23.30
2017,09,04,08,57,23.40
2017,09,04,08,58,23.40
2017,09,04,08,59,23.60
2017,09,04,09,00,23.60
2017,09,04,09,01,23.60
2017,09,04,09,02,23.70
2017,09,04,09,03,23.70
2017,09,04,09,04,23.70
2017,09,04,09,05,23.70
2017,09,04,09,06,23.80
2017,09,04,09,07,23.80
2017,09,04,09,08,23.90
2017,09,04,09,09,23.90
2017,09,04,09,10,24.10
2017,09,04,09,11,24.10
2017,09,04,09,12,24.10
2017,09,04,09,13,24.10
2017,09,04,09,14,24.20
2017,09,04,09,15,24.20
2017,09,04,09,16,24.20
2017,09,04,09,17,24.30
2017,09,04,09,18,24.30
2017,09,04,09,19,24.40
2017,09,04,09,20,24.40
2017,09,04,09,21,24.50
2017,09,04,09,22,24.50
2017,09,04,09,23,24.50
2017,09,04,09,24,24.60
2017,09,04,09,25,24.70
2017,09,04,09,26,24.80
2017,09,04,09,27,24.80
2017,09,04,09,28,24.90
2017,09,04,09,29,24.90
2017,09,04,09,30,24.90
2017,09,04,09,31,24.90
2017,09,04,09,32,24.90
2017,09,04,09,33,25.00
2017,09,04,09,34,25.00
2017,09,04,09,35,25.10
2017,09,04,09,36,25.10
2017,09,04,09,37,25.10
2017,09,04,09,38,25.20
2017,09,04,09,39,25.20
2017,09,04,09,40,25.20
2017,09,04,09,41,25.30
2017,09,04,09,42,25.30
2017,09,04,09,43,25.30
2017,09,04,09,44,25.40
2017,09,04,09,45,25.40
2017,09,04,09,46,25.40
2017,09,04,09,47,25.40
2017,09,04,09,48,25.40
2017,09,04,09,49,25.40
2017,09,04,09,50,25.50
2017,09,04,09,51,25.50
2017,09,04,09,52,25.50
2017,09,04,09,53,25.60
2017,09,04,09,54,25.50
2017,09,04,09,55,25.50
2017,09,04,09,56,25.60
2017,09,04,09,57,25.60
2017,09,04,09,58,25.70
2017,09,04,09,59,25.70
2017,09,04,10,00,25.80
2017,09,04,10,01,25.80
2017,09,04,10,02,25.90
2017,09,04,10,03,26.00
2017,09,04,10,04,26.10
2017,09,04,10,05,26.20
2017,09,04,10,06,26.20
2017,09,04,10,07,26.30
2017,09,04,10,08,26.40
2017,09,04,10,09,26.40
2017,09,04,10,10,26.40
2017,09,04,10,11,26.60
2017,09,04,10,12,26.60
2017,09,04,10,13,26.60
2017,09,04,10,14,26.60
2017,09,04,10,15,26.60
2017,09,04,10,16,26.70
2017,09,04,10,17,26.70
2017,09,04,10,18,26.80
2017,09,04,10,19,26.70
2017,09,04,10,20,26.70
2017,09,04,10,21,26.60
2017,09,04,10,22,26.60
2017,09,04,10,23,26.70
2017,09,04,10,24,26.70
2017,09,04,10,25,26.80
2017,09,04,10,26,26.80
2017,09,04,10,27,26.80
2017,09,04,10,28,26.80
2017,09,04,10,29,26.90
2017,09,04,10,30,26.90
2017,09,04,10,31,27.00
2017,09,04,10,32,27.10
2017,09,04,10,33,27.10
2017,09,04,10,34,27.10
2017,09,04,10,35,27.10
2017,09,04,10,36,27.10
2017,09,04,10,37,27.10
2017,09,04,10,38,27.20
2017,09,04,10,39,27.20
2017,09,04,10,40,27.20
2017,09,04,10,41,27.20
2017,09,04,10,42,27.20
2017,09,04,10,43,27.20
2017,09,04,10,44,27.20
2017,09,04,10,45,27.30
2017,09,04,10,46,27.30
2017,09,04,10,47,27.30
2017,09,04,10,48,27.30
2017,09,04,10,49,27.30
2017,09,04,10,50,27.30
2017,09,04,10,51,27.40
2017,09,04,10,52,27.40
2017,09,04,10,53,27.50
2017,09,04,10,54,27.60
2017,09,04,10,55,27.70
2017,09,04,10,56,27.70
2017,09,04,10,57,27.70
2017,09,04,10,58,27.80
2017,09,04,10,59,27.90
2017,09,04,11,00,28.00
2017,09,04,11,01,28.00
2017,09,04,11,02,28.00
2017,09,04,11,03,28.00
2017,09,04,11,04,28.00
2017,09,04,11,05,27.90
2017,09,04,11,06,27.90
2017,09,04,11,07,27.90
2017,09,04,11,08,27.90
2017,09,04,11,09,27.90
2017,09,04,11,10,27.90
2017,09,04,11,11,27.90
2017,09,04,11,12,27.90
2017,09,04,11,13,28.00
2017,09,04,11,14,28.00
2017,09,04,11,15,28.00
2017,09,04,11,16,27.90
2017,09,04,11,17,27.90
2017,09,04,11,18,27.90
2017,09,04,11,19,27.90
2017,09,04,11,20,27.90
2017,09,04,11,21,27.90
2017,09,04,11,22,27.90
2017,09,04,11,23,27.90
2017,09,04,11,24,28.00
2017,09,04,11,25,28.00
2017,09,04,11,26,28.10
2017,09,04,11,27,28.10
2017,09,04,11,28,28.10
2017,09,04,11,29,28.10
2017,09,04,11,30,28.00
2017,09,04,11,31,27.90
2017,09,04,11,32,27.80
2017,09,04,11,33,27.70
2017,09,04,11,34,27.60
2017,09,04,11,35,27.60
2017,09,04,11,36,27.60
2017,09,04,11,37,27.70
2017,09,04,11,38,27.80
2017,09,04,11,39,27.80
2017,09,04,11,40,27.70
2017,09,04,11,41,27.70
2017,09,04,11,42,27.70
2017,09,04,11,43,27.70
2017,09,04,11,44,27.70
2017,09,04,11,45,27.70
2017,09,04,11,46,27.80
2017,09,04,11,47,27.90
2017,09,04,11,48,27.90
2017,09,04,11,49,27.90
2017,09,04,11,50,27.90
2017,09,04,11,51,27.90
2017,09,04,11,52,28.00
2017,09,04,11,53,28.00
2017,09,04,11,54,27.90
2017,09,04,11,55,27.90
2017,09,04,11,56,27.90
2017,09,04,11,57,27.90
2017,09,04,11,58,27.90
2017,09,04,11,59,27.90
2017,09,04,12,00,28.00
2017,09,04,12,01,28.10
2017,09,04,12,02,28.00
2017,09,04,12,03,28.10
2017,09,04,12,04,28.20
2017,09,04,12,05,28.30
2017,09,04,12,06,28.30
2017,09,04,12,07,28.40
2017,09,04,12,08,28.40
2017,09,04,12,09,28.40
2017,09,04,12,10,28.30
2017,09,04,12,11,28.30
2017,09,04,12,12,28.40
2017,09,04,12,13,28.40
2017,09,04,12,14,28.40
2017,09,04,12,15,28.40
2017,09,04,12,16,28.40
2017,09,04,12,17,28.40
2017,09,04,12,18,28.40
2017,09,04,12,19,28.40
2017,09,04,12,20,28.40
2017,09,04,12,21,28.40
2017,09,04,12,22,28.50
2017,09,04,12,23,28.60
2017,09,04,12,24,28.60
2017,09,04,12,25,28.60
2017,09,04,12,26,28.60
2017,09,04,12,27,28.70
2017,09,04,12,28,28.80
2017,09,04,12,29,28.80
2017,09,04,12,30,28.70
2017,09,04,12,31,28.70
2017,09,04,12,32,28.60
2017,09,04,12,33,28.60
2017,09,04,12,34,28.60
2017,09,04,12,35,28.60
2017,09,04,12,36,28.70
2017,09,04,12,37,28.70
2017,09,04,12,38,28.70
2017,09,04,12,39,28.70
2017,09,04,12,40,28.60
2017,09,04,12,41,28.60
2017,09,04,12,42,28.60
2017,09,04,12,43,28.60
2017,09,04,12,44,28.60
2017,09,04,12,45,28.70
2017,09,04,12,46,28.70
2017,09,04,12,47,28.80
2017,09,04,12,48,28.90
2017,09,04,12,49,28.90
2017,09,04,12,50,29.10
2017,09,04,12,51,29.10
2017,09,04,12,52,29.30
2017,09,04,12,53,29.40
2017,09,04,12,54,29.50
2017,09,04,12,55,29.60
2017,09,04,12,56,29.70
2017,09,04,12,57,29.70
2017,09,04,12,58,29.70
2017,09,04,12,59,29.60
2017,09,04,13,00,29.60
2017,09,04,13,01,29.70
2017,09,04,13,02,29.70
2017,09,04,13,03,29.60
2017,09,04,13,04,29.60
2017,09,04,13,05,29.50
2017,09,04,13,06,29.50
2017,09,04,13,07,29.30
2017,09,04,13,08,29.30
2017,09,04,13,09,29.30
2017,09,04,13,10,29.30
2017,09,04,13,11,29.30
2017,09,04,13,12,29.30
2017,09,04,13,13,29.20
2017,09,04,13,14,29.20
2017,09,04,13,15,29.20
2017,09,04,13,16,29.20
2017,09,04,13,17,29.20
2017,09,04,13,18,29.10
2017,09,04,13,19,29.10
2017,09,04,13,20,29.10
2017,09,04,13,21,29.10
2017,09,04,13,22,29.10
2017,09,04,13,23,29.20
2017,09,04,13,24,29.30
2017,09,04,13,25,29.30
2017,09,04,13,26,29.40
2017,09,04,13,27,29.40
2017,09,04,13,28,29.50
2017,09,04,13,29,29.60
2017,09,04,13,30,29.70
2017,09,04,13,31,29.80
2017,09,04,13,32,29.90
2017,09,04,13,33,29.90
2017,09,04,13,34,29.90
2017,09,04,13,35,29.90
2017,09,04,13,36,29.90
2017,09,04,13,37,29.80
2017,09,04,13,38,29.80
2017,09,04,13,39,29.80
2017,09,04,13,40,29.70
2017,09,04,13,41,29.70
2017,09,04,13,42,29.70
2017,09,04,13,43,29.70
2017,09,04,13,44,29.70
2017,09,04,13,45,29.70
2017,09,04,13,46,29.70
2017,09,04,13,47,29.60
2017,09,04,13,48,29.60
2017,09,04,13,49,29.60
2017,09,04,13,50,29.60
2017,09,04,13,51,29.70
2017,09,04,13,52,29.80
2017,09,04,13,53,29.80
2017,09,04,13,54,29.90
2017,09,04,13,55,30.10
2017,09,04,13,56,30.20
2017,09,04,13,57,30.30
2017,09,04,13,58,30.30
2017,09,04,13,59,30.50
2017,09,04,14,00,30.60
2017,09,04,14,01,30.80
2017,09,04,14,02,30.80
2017,09,04,14,03,30.80
2017,09,04,14,04,30.90
2017,09,04,14,05,30.90
2017,09,04,14,06,31.00
2017,09,04,14,07,31.10
2017,09,04,14,08,31.10
2017,09,04,14,09,31.10
2017,09,04,14,10,30.90
2017,09,04,14,11,30.90
2017,09,04,14,12,30.90
2017,09,04,14,13,31.00
2017,09,04,14,14,31.00
2017,09,04,14,15,31.10
2017,09,04,14,16,31.10
2017,09,04,14,17,31.10
2017,09,04,14,18,31.10
2017,09,04,14,19,31.10
2017,09,04,14,20,31.20
2017,09,04,14,21,31.20
2017,09,04,14,22,31.20
2017,09,04,14,23,31.20
2017,09,04,14,24,31.20
2017,09,04,14,25,31.20
2017,09,04,14,26,31.20
2017,09,04,14,27,31.20
2017,09,04,14,28,31.20
2017,09,04,14,29,31.20
2017,09,04,14,30,31.20
2017,09,04,14,31,31.30
2017,09,04,14,32,31.30
2017,09,04,14,33,31.30
2017,09,04,14,34,31.30
2017,09,04,14,35,31.30
2017,09,04,14,36,31.20
2017,09,04,14,37,31.20
2017,09,04,14,38,31.10
2017,09,04,14,39,31.20
2017,09,04,14,40,31.20
2017,09,04,14,41,31.20
2017,09,04,14,42,31.20
2017,09,04,14,43,31.30
2017,09,04,14,44,31.40
2017,09,04,14,45,31.50
2017,09,04,14,46,31.60
2017,09,04,14,47,31.50
2017,09,04,14,48,31.30
2017,09,04,14,49,31.20
2017,09,04,14,50,31.10
2017,09,04,14,51,31.10
2017,09,04,14,52,31.00
2017,09,04,14,53,31.00
2017,09,04,14,54,31.10
2017,09,04,14,55,31.10
2017,09,04,14,56,31.10
2017,09,04,14,57,31.20
2017,09,04,14,58,31.20
2017,09,04,14,59,31.20
2017,09,04,15,00,31.00
2017,09,04,15,01,31.00
2017,09,04,15,02,31.00
2017,09,04,15,03,31.00
2017,09,04,15,04,31.00
2017,09,04,15,05,31.00
2017,09,04,15,06,31.00
2017,09,04,15,07,31.00
2017,09,04,15,08,30.90
2017,09,04,15,09,30.90
2017,09,04,15,10,30.90
2017,09,04,15,11,30.90
2017,09,04,15,12,30.90
2017,09,04,15,13,30.90
2017,09,04,15,14,30.90
2017,09,04,15,15,31.00
2017,09,04,15,16,31.00
2017,09,04,15,17,31.10
2017,09,04,15,18,31.10
2017,09,04,15,19,31.10
2017,09,04,15,20,31.00
2017,09,04,15,21,31.00
2017,09,04,15,22,30.90
2017,09,04,15,23,31.00
2017,09,04,15,24,31.00
2017,09,04,15,25,31.10
2017,09,04,15,26,31.10
2017,09,04,15,27,31.20
2017,09,04,15,28,31.20
2017,09,04,15,29,31.20
2017,09,04,15,30,31.30
2017,09,04,15,31,31.30
2017,09,04,15,32,31.30
2017,09,04,15,33,31.20
2017,09,04,15,34,31.20
2017,09,04,15,35,31.20
2017,09,04,15,36,31.10
2017,09,04,15,37,31.20
2017,09,04,15,38,31.20
2017,09,04,15,39,31.10
2017,09,04,15,40,31.10
2017,09,04,15,41,31.10
2017,09,04,15,42,31.10
2017,09,04,15,43,31.10
2017,09,04,15,44,31.20
2017,09,04,15,45,31.20
2017,09,04,15,46,31.20
2017,09,04,15,47,31.30
2017,09,04,15,48,31.30
2017,09,04,15,49,31.40
2017,09,04,15,50,31.40
2017,09,04,15,51,31.40
2017,09,04,15,52,31.30
2017,09,04,15,53,31.30
2017,09,04,15,54,31.30
2017,09,04,15,55,31.40
2017,09,04,15,56,31.40
2017,09,04,15,57,31.40
2017,09,04,15,58,31.40
2017,09,04,15,59,31.40
2017,09,04,16,00,31.40
2017,09,04,16,01,31.40
2017,09,04,16,02,31.40
2017,09,04,16,03,31.50
2017,09,04,16,04,31.50
2017,09,04,16,05,31.50
2017,09,04,16,06,31.50
2017,09,04,16,07,31.50
2017,09,04,16,08,31.60
2017,09,04,16,09,31.50
2017,09,04,16,10,31.40
2017,09,04,16,11,31.30
2017,09,04,16,12,31.20
2017,09,04,16,13,31.10
2017,09,04,16,14,30.90
2017,09,04,16,15,30.60
2017,09,04,16,16,30.20
2017,09,04,16,17,30.00
2017,09,04,16,18,29.80
2017,09,04,16,19,29.70
2017,09,04,16,20,29.40
2017,09,04,16,21,29.20
2017,09,04,16,22,28.90
2017,09,04,16,23,28.80
2017,09,04,16,24,28.60
2017,09,04,16,25,28.60
2017,09,04,16,26,28.50
2017,09,04,16,27,28.40
2017,09,04,16,28,28.40
2017,09,04,16,29,28.50
2017,09,04,16,30,28.60
2017,09,04,16,31,28.50
2017,09,04,16,32,28.40
2017,09,04,16,33,28.40
2017,09,04,16,34,28.40
2017,09,04,16,35,28.30
2017,09,04,16,36,28.40
2017,09,04,16,37,28.50
2017,09,04,16,38,28.60
2017,09,04,16,39,28.50
2017,09,04,16,40,28.60
2017,09,04,16,41,28.60
2017,09,04,16,42,28.60
2017,09,04,16,43,28.60
2017,09,04,16,44,28.70
2017,09,04,16,45,28.70
2017,09,04,16,46,28.80
2017,09,04,16,47,28.90
2017,09,04,16,48,28.90
2017,09,04,16,49,29.00
2017,09,04,16,50,29.10
2017,09,04,16,51,29.20
2017,09,04,16,52,29.20
2017,09,04,16,53,29.30
2017,09,04,16,54,29.40
2017,09,04,16,55,29.40
2017,09,04,16,56,29.40
2017,09,04,16,57,29.50
2017,09,04,16,58,29.50
2017,09,04,16,59,29.60
2017,09,04,17,00,29.60
2017,09,04,17,01,29.60
2017,09,04,17,02,29.60
2017,09,04,17,03,29.60
2017,09,04,17,04,29.30
2017,09,04,17,05,29.00
2017,09,04,17,06,28.80
2017,09,04,17,07,28.70
2017,09,04,17,08,28.60
2017,09,04,17,09,28.50
2017,09,04,17,10,28.40
2017,09,04,17,11,28.40
2017,09,04,17,12,28.30
2017,09,04,17,13,28.30
2017,09,04,17,14,28.20
2017,09,04,17,15,28.20
2017,09,04,17,16,28.10
2017,09,04,17,17,28.00
2017,09,04,17,18,28.00
2017,09,04,17,19,28.00